Regional Weather Roundup
Issued by NWS

Home | Current Version | Previous Version | Graphics & Text | Print | Product List | Glossary On
Versions: 1 2 3 4 5 6 7 8 9 10 11 12 13 14 15 16 17 18 19 20 21 22 23 24 25 26 27 28 29 30 31 32 33 34 35 36 37 38 39 40 41 42 43 44 45 46 47 48 49 50
000
ASUS43 KMKX 121521
RWRWI

WISCONSIN REGIONAL WEATHER ROUNDUP
NATIONAL WEATHER SERVICE MILWAUKEE/SULLIVAN WI
1000 AM CDT SAT JUL 12 2014

NOTE: "FAIR" INDICATES FEW OR NO CLOUDS BELOW 12,000 FEET WITH NO
SIGNIFICANT WEATHER AND/OR OBSTRUCTIONS TO VISIBILITY.

WIZ001-002-006>008-014>016-023>028-121600-
NORTHWEST WISCONSIN

CITY           SKY/WX    TMP DP  RH WIND       PRES   REMARKS
SUPERIOR ARPT  PTSUNNY   72  60  65 CALM      30.01R
ASHLAND        MOSUNNY   72  58  61 NE8       30.01S
HAYWARD        PTSUNNY   73  66  78 CALM      30.00F
SIREN          PTSUNNY   72  66  83 NE3       30.00S
RICE LAKE      CLOUDY    70  69  95 CALM      30.01F FOG
LADYSMITH      CLOUDY    70  68  92 CALM      30.03F FOG
EAU CLAIRE     CLOUDY    73  69  87 W3        29.99F
MENOMONIE      CLOUDY    72  69  89 CALM      30.00F
NEW RICHMOND   CLOUDY    71  70  95 CALM      30.00S FOG
OSCEOLA        CLOUDY    72  72 100 CALM      30.01F FOG
$$

WIZ003>005-009-010-017-018-121600-
NORTH CENTRAL WISCONSIN

CITY           SKY/WX    TMP DP  RH WIND       PRES   REMARKS
WOODRUFF       PTSUNNY   77  72  83 W5        30.02F
RHINELANDER    CLOUDY    72  65  78 W5        30.03F
EAGLE RIVER    PTSUNNY   72  64  75 SW7       30.01F
LAND O LAKES   PTSUNNY   74  64  69 W3        30.02F
PHILLIPS       CLOUDY    70  67  88 SW3       30.01F
TOMAHAWK       CLOUDY    71  66  84 CALM      30.03F
MEDFORD        CLOUDY    70  67  90 CALM      30.02F
MERRILL        CLOUDY    73  68  85 CALM      30.01F
$$

WIZ029-030-035-036-043>047-121600-
CENTRAL WISCONSIN

CITY           SKY/WX    TMP DP  RH WIND       PRES   REMARKS
WAUSAU         CLOUDY    73  67  81 W3        30.00F
MOSINEE        MOSUNNY   72  70  94 NW5       30.02F
MARSHFIELD     CLOUDY    72  68  87 NW5       30.01F
STEVENS POINT  CLOUDY    70  65  82 CALM      30.02F
WAUPACA        CLOUDY    74  67  76 S3        30.01F
WAUTOMA        CLOUDY    75  66  73 SW5       30.02F
WISC RAPIDS    CLOUDY    73  67  81 SW3       30.01F
CAMP DOUGLAS   NOT AVBL
$$

WIZ011>013-019>022-031-037>040-048>050-121600-
NORTHEAST WISCONSIN

CITY           SKY/WX    TMP DP  RH WIND       PRES   REMARKS
ANTIGO         CLOUDY    71  67  86 W5        30.03F
STURGEON BAY   CLOUDY    72  63  73 SW5       30.01F
GREEN BAY      CLOUDY    74  66  76 S3        30.01F
MANITOWOC      CLOUDY    70  63  78 S3        30.02F
APPLETON       PTSUNNY   72  63  73 CALM      30.03F
CLINTONVILLE   CLOUDY    72  63  73 S3        30.00F
OSHKOSH        CLOUDY    75  66  73 CALM      30.01F
$$

WIZ032>034-041-042-053>061-121600-
SOUTHWEST WISCONSIN

CITY           SKY/WX    TMP DP  RH WIND       PRES   REMARKS
LA CROSSE      CLOUDY    74  68  81 CALM      29.99F
SPARTA         CLOUDY    73  67  83 CALM      30.01F
VIROQUA        PTSUNNY   72  71  98 N6        30.01F
BOSCOBEL       CLOUDY    73  67  81 NE3       29.98F
PRAIRIE DU CHI CLOUDY    75  69  81 CALM      29.97F
PLATTEVILLE    FAIR      73  70  91 NE6       29.98F
$$

WIZ056-057-062-063-064-067-068-121600-
SOUTH CENTRAL WISCONSIN

CITY           SKY/WX    TMP DP  RH WIND       PRES   REMARKS
BARABOO/DELLS  CLOUDY    72  65  77 CALM      30.00F
LONE ROCK      CLOUDY    77  68  73 NE6       29.97F
WATERTOWN      CLOUDY    73  67  81 SW5       30.01F
MADISON        CLOUDY    77  67  71 N5        29.99F
MIDDLETON      FAIR      75  67  74 N5        29.99F
MONROE         CLOUDY    72  68  88 NE7       29.97F
JANESVILLE     CLOUDY    75  66  73 NE5       29.98F
$$

WIZ051-052-058>065-066-070>072-121600-
SOUTHEAST WISCONSIN

CITY           SKY/WX    TMP DP  RH WIND       PRES   REMARKS
MILWAUKEE      CLOUDY    74  65  73 SW7       30.03F
WAUKESHA       PTSUNNY   70  64  83 SW3       30.04F
MILWAUKEE/TIMM CLOUDY    73  63  68 SW5       30.03F
RACINE         CLOUDY    74  68  81 VRB5      30.04F
BURLINGTON     CLOUDY    73  67  80 W3        30.02F
KENOSHA        CLOUDY    73  69  87 SW7       30.03F
FOND DU LAC    CLOUDY    75  65  70 S5        30.01F
SHEBOYGAN      CLOUDY    72  64  76 SE3       30.02F
WEST BEND      CLOUDY    73  63  68 SW3       30.02F
JUNEAU         CLOUDY    72  50  46 SW5       30.03F
$$

LSZ147-162-121600-
LAKE SUPERIOR

STATION/POSITION TIME  TEMP    WIND        PRES    WAVE
                       AIR SEA DIR/SP/G            HT/PER
                 (UTC) (F)     (DEG/KT/KT) (MB)    (FT/S)
W MID LAKE BUOY  1450   45 38  260/  6/  8 1015.7F   0
PORT WING        1400   66     360/  2/  3 1016.3S
SAXON HARBOR     1400             CALM     1015.9S
$$

LMZ867-665-643>646-121600-
LAKE MICHIGAN

STATION/POSITION TIME  TEMP    WIND        PRES    WAVE
                       AIR SEA DIR/SP/G            HT/PER
                 (UTC) (F)     (DEG/KT/KT) (MB)    (FT/S)
N MID LAKE BUOY  1450   57 55  210/ 14/ 16 1015.5F   2/ 4
NORTHPORT PIER   1400   65     170/  3/  6 1015.9S
KEWAUNEE LAKESHO 1500   54     170/  5/  8 1016.9F
SHEBOYGAN LAKESH 1500   63     150/  8/  8 1016.3F
PORT WASHINGTON  1400   65     160/  4/  4 1017.6S
MILWAUKEE LAKESH 1500   63      90/  2/  3   N/A
S MID LAKE BUOY  1450   63 62  360/  2/  4 1017.4F   1/ 3
KENOSHA   LAKESH 1500   69     210/  6/  9   N/A
$$

TC  - TEMPERATURE IN CELSIUS
VSB - VISIBILITY IN STATUTE MILES
WCI - WIND CHILL INDEX
HX  - HEAT INDEX




USA.gov is the U.S. government's official web portal to all federal, state and local government web resources and services.